Location: Unspecified
(0.0000°N, 0.0000°E)
Time: 10:03:19
(UTC+00:00)

Vanguard 2 - Pass Details

Date: 15 December 2018
Orbit: 552 x 2939 km, 32.9° (Epoch: 17 January)

Event Time Altitude Azimuth Distance (km) Brightness Sun altitude
Rises 01:42:52 0° 322° (NW) 4,859 - -55.0°
Reaches altitude 10° 01:45:56 10° 330° (NNW) 4,171 - -54.4°
Maximum altitude 01:57:16 43° 38° (NE) 3,151 - -52.3°
Exits shadow 01:59:43 41° 57° (ENE) 3,352 10.6 -51.8°
Drops below altitude 10° 02:13:01 10° 103° (ESE) 5,734 12.4 -49.2°
Sets 02:18:03 0° 109° (ESE) 6,793 13.0 -48.2°
